Regional Weather Roundup
Issued by NWS

Home | Current Version | Previous Version | Graphics & Text | Print | Product List | Glossary On
Versions: 1 2 3 4 5 6 7 8 9 10 11 12 13 14 15 16 17 18 19 20 21 22 23 24 25 26 27 28 29 30 31 32 33 34 35 36 37 38 39 40 41 42 43 44 45 46 47 48 49 50
000
ASUS43 KLSX 241507
RWRMO

WEATHER SUMMARY FOR MISSOURI
NATIONAL WEATHER SERVICE SPRINGFIELD MO
1000 AM CDT FRI OCT 24 2014

NOTE: "FAIR" INDICATES FEW OR NO CLOUDS BELOW 12,000 FEET WITH NO
       SIGNIFICANT WEATHER AND/OR OBSTRUCTIONS TO VISIBILITY.
       CURRENT SKY AND/OR WEATHER CONDITIONS ARE NOT AVAILABLE FOR
       CHILLICOTHE AND FARMINGTON.

MOZ001>031-035>038-043-044-053-054-241600-
...NORTHERN AND WESTERN MISSOURI...

CITY           SKY/WX    TMP DP  RH WIND       PRES   REMARKS
KANSAS CTY INT CLOUDY    59  58  96 S13       30.04S FOG
KANSAS C DTWN  CLOUDY    61  57  87 S8        30.05S FOG
LEE`S SUMMIT   PTSUNNY   59  56  89 S8        30.07S
ST JOSEPH      CLOUDY    60  58  92 S10       30.03S FOG
CHILLICOTHE      N/A     59  58  96 S6        30.07S
KIRKSVILLE     FOG       57  57 100 S7        30.09R VSB 1/4

$$
MOZ066>068-077>081-088>096-101>105-241600-
...SOUTHWEST MISSOURI...

CITY           SKY/WX    TMP DP  RH WIND       PRES   REMARKS
SPRINGFIELD    CLOUDY    57  54  89 S5        30.13R
JOPLIN         PTSUNNY   62  54  74 SW14      30.12S

$$
MOZ032>034-039>042-045>050-055>058-069>072-241600-
...CENTRAL MISSOURI...

CITY           SKY/WX    TMP DP  RH WIND       PRES   REMARKS
COLUMBIA       CLOUDY    59  58  96 S5        30.12R FOG
JEFFERSON CITY PTSUNNY   58  55  90 SE3       30.12S
ROLLA          PTSUNNY   59  55  87 SW6       30.12S
SEDALIA        PTSUNNY   62  56  80 S10       30.10F
WHITEMAN AFB   MOSUNNY   61  56  83 SW10      30.08F
OSAGE BEACH    MOSUNNY   63  55  77 S8        30.13S

$$
MOZ051-052-059>065-241600-
...EAST CENTRAL MISSOURI...

CITY           SKY/WX    TMP DP  RH WIND       PRES   REMARKS
ST LOUIS INTL  PTSUNNY   61  55  81 W3        30.13R
SPIRIT OF STL  PTSUNNY   57  54  89 W7        30.12S
ST CHARLES     CLOUDY    57  55  93 CALM      30.12R

$$
MOZ072>076-082>087-097>100-106>115-241600-
...SOUTH CENTRAL AND SOUTHEAST MISSOURI...

CITY           SKY/WX    TMP DP  RH WIND       PRES   REMARKS
CAPE GIRARDEAU CLOUDY    57  49  74 W5        30.14S
FARMINGTON     MOSUNNY   61  54  77 W5        30.16R
POPLAR BLUFF   CLOUDY    56  48  74 CALM      30.14S
WEST PLAINS    SUNNY     58  51  78 CALM      30.16S

$$



USA.gov is the U.S. government's official web portal to all federal, state and local government web resources and services.